Regional Weather Roundup
Issued by NWS

Home | Current Version | Previous Version | Text Only | Print | Product List | Glossary On
Versions: 1 2 3 4 5 6 7 8 9 10 11 12 13 14 15 16 17 18 19 20 21 22 23 24 25 26 27 28 29 30 31 32 33 34 35 36 37 38 39 40 41 42 43 44 45 46 47 48 49 50
000
ASUS43 KTOP 230508
RWRKS

WEATHER ROUNDUP FOR KANSAS
NATIONAL WEATHER SERVICE GOODLAND KS
1200 AM CDT SUN JUL 23 2017

NOTE:  "FAIR" INDICATES FEW OR NO CLOUDS BELOW 12,000 FEET WITH NO
SIGNIFICANT WEATHER AND/OR OBSTRUCTIONS TO VISIBILITY.

KSZ001>006-013>018-027>032-041>047-230600-
NORTHWEST KANSAS

CITY           SKY/WX    TMP DP  RH WIND       PRES   REMARKS
GOODLAND       CLEAR     64  54  69 NW5       30.11R
HAYS           CLOUDY    72  68  87 S9        29.97R
HILL CITY      CLOUDY    71  69  93 N3        29.98F
RUSSELL        MOCLDY    72  66  81 SE7       29.94R
$$

KSZ061>065-074>080-084>089-230600-
SOUTHWEST KANSAS

CITY           SKY/WX    TMP DP  RH WIND       PRES   REMARKS
DODGE CITY     CLEAR     74  64  71 E9        30.00S
ELKHART          N/A     75  54  48 N8          N/A
GARDEN CITY    CLOUDY    75  63  66 NE9       30.03R
LIBERAL        CLEAR     74  64  71 N9        30.02R
PRATT          CLEAR     75  63  66 E12       29.97S
$$

KSZ066>073-081>083-090>101-230600-
SOUTHEAST KANSAS

CITY           SKY/WX    TMP DP  RH WIND       PRES   REMARKS
CHANUTE        CLOUDY    82  67  60 NE14G25   29.92R
COFFEYVILLE    CLEAR     84  72  67 S9        29.86R
HUTCHINSON     CLOUDY    73  66  78 E10       29.94S
MEDICINE LODGE   N/A     80  63  55 NE18G28   29.93R
NEWTON         LGT RAIN  72  67  84 NE8       29.98R
PARSONS        CLOUDY    83  72  69 N13       29.90R
WICHITA INTL   MOCLDY    74  70  87 NE14      29.94F
WICHITA JABRA  TSTM      71  68  90 NE13G21   29.97F
WICHITA MCCONL TSTM      72  70  94 NE15      29.95F
WINFIELD       MOCLDY    84  65  52 N30G40    29.96R
$$

KSZ007>012-019>026-033>040-048>060-102>105-230600-
NORTHEAST KANSAS

CITY           SKY/WX    TMP DP  RH WIND       PRES   REMARKS
CONCORDIA      CLOUDY    71  70  96 N7        29.94F
EMPORIA        CLOUDY    71  67  87 N9        29.97F
LAWRENCE       LGT RAIN  74  72  93 W17       29.95R
MANHATTAN      LGT RAIN  73  69  87 NE5       29.89F
MARYSVILLE     CLOUDY    75  70  83 CALM      29.96F
OLATHE IND     CLOUDY    70  65  84 S6        29.96R
OLATHE EXE     CLOUDY    69  67  93 NW6       29.98R
SALINA         CLOUDY    76  68  76 E12       29.89F
TOPEKA BILLARD LGT RAIN  74  74 100 SW6       29.97F
TOPEKA FORBES  LGT RAIN  74  71  91 N5        29.98S
$$




USA.gov is the U.S. government's official web portal to all federal, state and local government web resources and services.